Plymouth, MA

2:18 AM EDT on April 24, 2017 (GMT -0400)
Plymouth Municipal

Weather History for KPYM - April, 2013

Change the Weather History Date:

Thursday, April 18, 2013

  Actual Average Record
Temperature  
Mean Temperature 48 °F -  
Max Temperature 61 °F 58 °F 85 °F (1964)
Min Temperature 35 °F 37 °F 24 °F (1980)
Degree Days  
Heating Degree Days 18    
Moisture  
Dew Point 34 °F    
Average Humidity 58    
Maximum Humidity 89    
Minimum Humidity 31    
Precipitation  
Precipitation 0.00 in - - ()
Sea Level Pressure  
Sea Level Pressure 30.33 in    
Wind  
Wind Speed 5 mph (South)    
Max Wind Speed 14 mph    
Max Gust Speed 22 mph    
Visibility 10 miles    
Events      
Averages and records for this station are not official NWS values.
T = Trace of Precipitation, MM = Missing Value Source: NWS Daily Summary

Daily Weather History Graph

Daily Weather History Graph

Search for Another Location

Airport or City:

Trip Planner

Search our weather history database for the weather conditions in past years. The results will help you decide how hot, cold, wet, or windy it might be!

Date:

Astronomy

Apr. 18, 2013 Rise Set
Actual Time 5:57 AM EDT 7:27 PM EDT
Civil Twilight 5:28 AM EDT 7:56 PM EDT
Nautical Twilight 4:53 AM EDT 8:32 PM EDT
Astronomical Twilight 4:15 AM EDT 9:09 PM EDT
Moon 12:05 PM EDT (4/18) 1:41 AM EDT (4/18)
Length of Visible Light 14h 28m
Length of Day
13h 29m
First Quarter, 51% of the Moon is Illuminated
Apr 18
First Quarter
Apr 25
Full
May 2
Last Quarter
May 9
New
May 18
First Quarter

Hourly Weather History & Observations

Time (EDT) Temp. Windchill Dew Point Humidity Pressure Visibility Wind Dir Wind Speed Gust Speed Precip Events Conditions
12:52 AM 43.0 °F 41.3 °F 37.0 °F 80% 30.36 in 10.0 mi West 3.5 mph - N/A   Clear
1:52 AM 39.0 °F - 36.0 °F 89% 30.36 in 10.0 mi Calm Calm - N/A   Clear
2:52 AM 37.0 °F - 33.1 °F 86% 30.36 in 9.0 mi Calm Calm - N/A   Clear
3:52 AM 36.0 °F - 32.0 °F 86% 30.38 in 10.0 mi Calm Calm - N/A   Clear
4:52 AM 35.1 °F - 30.9 °F 85% 30.40 in 9.0 mi Calm Calm - N/A   Clear
5:52 AM 35.1 °F 32.2 °F 30.0 °F 82% 30.41 in 10.0 mi ENE 3.5 mph - N/A   Clear
6:52 AM 37.9 °F 35.5 °F 34.0 °F 86% 30.41 in 10.0 mi East 3.5 mph - N/A   Clear
7:52 AM 48.9 °F - 34.0 °F 56% 30.42 in 10.0 mi East 9.2 mph - N/A   Clear
8:52 AM 52.0 °F - 30.0 °F 43% 30.43 in 10.0 mi ESE 11.5 mph 19.6 mph N/A   Clear
9:52 AM 55.9 °F - 28.0 °F 34% 30.42 in 10.0 mi ESE 13.8 mph - N/A   Clear
10:52 AM 57.9 °F - 27.0 °F 31% 30.42 in 10.0 mi South 9.2 mph - N/A   Clear
11:52 AM 59.0 °F - 30.0 °F 33% 30.41 in 10.0 mi SSW 9.2 mph - N/A   Clear
12:52 PM 60.1 °F - 30.9 °F 33% 30.39 in 10.0 mi SSW 11.5 mph 17.3 mph N/A   Clear
1:52 PM 60.1 °F - 28.9 °F 31% 30.37 in 10.0 mi South 8.1 mph 18.4 mph N/A   Partly Cloudy
2:52 PM 59.0 °F - 30.0 °F 33% 30.34 in 10.0 mi South 12.7 mph 19.6 mph N/A   Partly Cloudy
3:52 PM 57.0 °F - 30.0 °F 36% 30.33 in 10.0 mi SSW 12.7 mph 21.9 mph N/A   Overcast
4:52 PM 57.0 °F - 28.9 °F 34% 30.32 in 10.0 mi South 10.4 mph 19.6 mph N/A   Partly Cloudy
5:52 PM 55.9 °F - 28.0 °F 34% 30.30 in 10.0 mi South 8.1 mph 19.6 mph N/A   Clear
6:52 PM 53.1 °F - 30.9 °F 43% 30.29 in 10.0 mi Variable 6.9 mph - N/A   Partly Cloudy
7:52 PM 51.1 °F - 37.9 °F 61% 30.27 in 10.0 mi SSE 3.5 mph - N/A   Partly Cloudy
8:52 PM 50.0 °F - 37.9 °F 63% 30.26 in 10.0 mi South 6.9 mph - N/A   Mostly Cloudy
9:52 PM 50.0 °F - 39.9 °F 68% 30.24 in 10.0 mi South 5.8 mph - N/A   Overcast
10:52 PM 51.1 °F - 42.1 °F 71% 30.20 in 10.0 mi South 6.9 mph - N/A   Overcast
11:05 PM 51.8 °F - 42.8 °F 71% 30.20 in 10.0 mi SSW 5.8 mph - N/A   Overcast
11:47 PM 51.8 °F - 44.6 °F 76% 30.18 in 10.0 mi SSW 10.4 mph - N/A   Overcast
11:52 PM 52.0 °F - 44.1 °F 74% 30.17 in 10.0 mi Variable 6.9 mph - N/A   Overcast